When you browse on this site, cookies collect data to enhance your experience and personalize the content and advertising you see.
Visit our Privacy Policy to learn more. By continuing to use the site, you agree to this use of cookies and data.
  • In Hungary
  • List of Countries
  • For 7 days
  • Water Temperature
  • Satellite Maps
  • Weather Map
  • News
  • Weather Widgets
  • user-avatar
    Login

    Hourly Weather Lusaka

    Today, 21 November, Wednesday

    Time Temperature Precipitation Wind Pressure Humidity
    00:00 +24°C° 0 mm 2 mps 655 mmHg 41%
    01:00 +23°C° 0 mm 2 mps 655 mmHg 44%
    02:00 +23°C° 0 mm 2 mps 655 mmHg 46%
    03:00 +21°C° 0 mm 2 mps 655 mmHg 50%
    04:00 +21°C° 0 mm 2 mps 655 mmHg 54%
    05:00 +21°C° 0 mm 1 mps 655 mmHg 58%
    06:00 +24°C° 0 mm 2 mps 656 mmHg 53%
    07:00 +26°C° 0 mm 2 mps 657 mmHg 47%
    08:00 +29°C° 0 mm 3 mps 658 mmHg 40%
    09:00 +34°C° 0 mm 2 mps 659 mmHg 32%
    10:00 +37°C° 0 mm 2 mps 659 mmHg 24%
    11:00 +40°C° 0 mm 1 mps 659 mmHg 15%
    12:00 +41°C° 0 mm 2 mps 658 mmHg 14%
    13:00 +41°C° 0 mm 2 mps 657 mmHg 13%
    14:00 +41°C° 0 mm 2 mps 657 mmHg 12%
    15:00 +40°C° 0 mm 3 mps 656 mmHg 12%
    16:00 +39°C° 0 mm 3 mps 655 mmHg 13%
    17:00 +37°C° 0 mm 3 mps 654 mmHg 14%
    18:00 +35°C° 0 mm 3 mps 655 mmHg 16%
    19:00 +32°C° 0 mm 2 mps 655 mmHg 19%
    20:00 +30°C° 0 mm 2 mps 655 mmHg 21%
    21:00 +29°C° 0 mm 2 mps 655 mmHg 23%
    22:00 +28°C° 0 mm 2 mps 655 mmHg 24%
    23:00 +27°C° 0 mm 1 mps 655 mmHg 26%

    Tomorrow, 22 November, Thursday

    Time Temperature Precipitation Wind Pressure Humidity
    00:00 +26°C° 0 mm 2 mps 655 mmHg 30%
    01:00 +26°C° 0 mm 2 mps 654 mmHg 34%
    02:00 +25°C° 0 mm 2 mps 654 mmHg 37%
    03:00 +25°C° 0 mm 2 mps 654 mmHg 44%
    04:00 +24°C° 0 mm 3 mps 654 mmHg 51%
    05:00 +24°C° 0 mm 3 mps 654 mmHg 58%
    06:00 +26°C° 0 mm 3 mps 655 mmHg 53%
    07:00 +28°C° 0 mm 3 mps 656 mmHg 49%
    08:00 +30°C° 0 mm 4 mps 657 mmHg 44%
    09:00 +33°C° 0 mm 3 mps 657 mmHg 37%
    10:00 +36°C° 0 mm 3 mps 658 mmHg 29%
    11:00 +39°C° 0 mm 3 mps 658 mmHg 22%
    12:00 +38°C° 0 mm 2 mps 657 mmHg 23%
    13:00 +37°C° 0 mm 2 mps 656 mmHg 24%
    14:00 +35°C° 0 mm 1 mps 655 mmHg 24%
    15:00 +34°C° 0 mm 1 mps 655 mmHg 25%
    16:00 +34°C° 0 mm 1 mps 655 mmHg 26%
    17:00 +34°C° 0 mm 1 mps 654 mmHg 27%
    18:00 +32°C° 0.2 mm 1 mps 655 mmHg 31%
    19:00 +30°C° 0.2 mm 1 mps 655 mmHg 36%
    20:00 +28°C° 0.2 mm 1 mps 655 mmHg 40%
    21:00 +27°C° 0.5 mm 1 mps 655 mmHg 44%
    22:00 +26°C° 0.5 mm 1 mps 655 mmHg 49%
    23:00 +26°C° 0.5 mm 1 mps 655 mmHg 53%

    Day after tomorrow, 23 November, Friday

    Time Temperature Precipitation Wind Pressure Humidity
    00:00 +25°C° 0.4 mm 1 mps 655 mmHg 56%
    01:00 +24°C° 0.4 mm 1 mps 655 mmHg 60%
    02:00 +24°C° 0.4 mm 1 mps 655 mmHg 63%
    03:00 +23°C° 0.4 mm 1 mps 655 mmHg 65%
    04:00 +23°C° 0.4 mm 1 mps 655 mmHg 67%
    05:00 +23°C° 0.4 mm 1 mps 656 mmHg 69%
    06:00 +24°C° 0.1 mm 1 mps 657 mmHg 65%
    07:00 +25°C° 0.1 mm 2 mps 658 mmHg 62%
    08:00 +26°C° 0.1 mm 2 mps 658 mmHg 58%
    09:00 +29°C° 0.1 mm 2 mps 659 mmHg 50%
    10:00 +31°C° 0.1 mm 2 mps 659 mmHg 41%
    11:00 +35°C° 0.1 mm 2 mps 660 mmHg 33%
    12:00 +33°C° 0 mm 1 mps 659 mmHg 33%
    13:00 +33°C° 0 mm 1 mps 658 mmHg 34%
    14:00 +32°C° 0 mm 1 mps 657 mmHg 34%
    15:00 +32°C° 0.1 mm 1 mps 656 mmHg 36%
    16:00 +31°C° 0.1 mm 1 mps 656 mmHg 39%
    17:00 +30°C° 0.1 mm 1 mps 655 mmHg 41%
    18:00 +29°C° 0.4 mm 1 mps 655 mmHg 47%
    19:00 +27°C° 0.4 mm 1 mps 655 mmHg 52%
    20:00 +26°C° 0.4 mm 1 mps 655 mmHg 58%
    21:00 +25°C° 0.9 mm 1 mps 656 mmHg 62%
    22:00 +24°C° 0.9 mm 1 mps 656 mmHg 67%
    23:00 +24°C° 0.9 mm 1 mps 657 mmHg 71%

    24 November, Saturday

    Time Temperature Precipitation Wind Pressure Humidity
    00:00 +23°C° 0.6 mm 1 mps 657 mmHg 74%
    01:00 +23°C° 0.6 mm 2 mps 656 mmHg 76%
    02:00 +23°C° 0.6 mm 2 mps 656 mmHg 78%
    03:00 +21°C° 1.5 mm 2 mps 656 mmHg 80%
    04:00 +21°C° 1.5 mm 3 mps 656 mmHg 82%
    05:00 +21°C° 1.5 mm 3 mps 657 mmHg 84%
    06:00 +21°C° 1.3 mm 3 mps 657 mmHg 82%
    07:00 +21°C° 1.3 mm 2 mps 658 mmHg 81%
    08:00 +23°C° 1.3 mm 2 mps 658 mmHg 79%
    09:00 +24°C° 0.7 mm 2 mps 659 mmHg 73%
    10:00 +25°C° 0.7 mm 3 mps 659 mmHg 67%
    11:00 +26°C° 0.7 mm 3 mps 659 mmHg 61%
    12:00 +27°C° 0.2 mm 3 mps 658 mmHg 57%
    13:00 +28°C° 0.2 mm 2 mps 658 mmHg 53%
    14:00 +28°C° 0.2 mm 2 mps 657 mmHg 49%
    15:00 +28°C° 0.1 mm 2 mps 657 mmHg 50%
    16:00 +28°C° 0.1 mm 2 mps 657 mmHg 51%
    17:00 +27°C° 0.1 mm 2 mps 657 mmHg 52%
    18:00 +26°C° 0 mm 2 mps 657 mmHg 57%
    19:00 +25°C° 0 mm 2 mps 657 mmHg 62%
    20:00 +24°C° 0 mm 2 mps 657 mmHg 67%
    21:00 +23°C° 0.1 mm 2 mps 658 mmHg 70%
    22:00 +23°C° 0.1 mm 2 mps 658 mmHg 72%
    23:00 +21°C° 0.1 mm 2 mps 658 mmHg 75%

    25 November, Sunday

    Time Temperature Precipitation Wind Pressure Humidity
    00:00 +21°C° 0.1 mm 2 mps 657 mmHg 76%
    01:00 +21°C° 0.1 mm 2 mps 657 mmHg 78%
    02:00 +20°C° 0.1 mm 2 mps 656 mmHg 80%
    03:00 +20°C° 0 mm 2 mps 657 mmHg 80%
    04:00 +20°C° 0 mm 2 mps 657 mmHg 81%
    05:00 +20°C° 0 mm 2 mps 657 mmHg 82%
    06:00 +21°C° 0.1 mm 2 mps 658 mmHg 77%
    07:00 +23°C° 0.1 mm 2 mps 658 mmHg 72%
    08:00 +24°C° 0.1 mm 3 mps 659 mmHg 67%
    09:00 +25°C° 0.3 mm 3 mps 659 mmHg 63%
    10:00 +26°C° 0.3 mm 3 mps 659 mmHg 59%
    11:00 +27°C° 0.3 mm 4 mps 659 mmHg 55%
    12:00 +27°C° 0.4 mm 3 mps 659 mmHg 53%
    13:00 +28°C° 0.4 mm 3 mps 658 mmHg 51%
    14:00 +28°C° 0.4 mm 3 mps 657 mmHg 49%
    15:00 +28°C° 0.2 mm 3 mps 657 mmHg 48%
    16:00 +28°C° 0.2 mm 3 mps 657 mmHg 47%
    17:00 +28°C° 0.2 mm 3 mps 657 mmHg 46%
    18:00 +26°C° 0 mm 2 mps 657 mmHg 53%
    19:00 +25°C° 0 mm 2 mps 657 mmHg 59%
    20:00 +23°C° 0 mm 2 mps 657 mmHg 65%
    21:00 +23°C° 0 mm 2 mps 657 mmHg 68%
    22:00 +23°C° 0 mm 2 mps 657 mmHg 71%
    23:00 +21°C° 0 mm 2 mps 657 mmHg 74%

    26 November, Monday

    Time Temperature Precipitation Wind Pressure Humidity
    00:00 +21°C° 0 mm 2 mps 657 mmHg 76%
    01:00 +20°C° 0 mm 2 mps 656 mmHg 78%
    02:00 +20°C° 0 mm 2 mps 655 mmHg 80%
    03:00 +20°C° 0 mm 2 mps 655 mmHg 81%
    04:00 +20°C° 0 mm 2 mps 656 mmHg 82%
    05:00 +20°C° 0 mm 2 mps 656 mmHg 83%
    06:00 +20°C° 0 mm 2 mps 656 mmHg 79%
    07:00 +21°C° 0 mm 2 mps 657 mmHg 76%
    08:00 +23°C° 0 mm 2 mps 658 mmHg 73%
    09:00 +24°C° 0.3 mm 3 mps 658 mmHg 66%
    10:00 +26°C° 0.3 mm 3 mps 658 mmHg 59%
    11:00 +28°C° 0.3 mm 3 mps 658 mmHg 52%
    12:00 +29°C° 0.2 mm 3 mps 658 mmHg 48%
    13:00 +30°C° 0.2 mm 3 mps 657 mmHg 44%
    14:00 +31°C° 0.2 mm 2 mps 657 mmHg 39%
    15:00 +30°C° 0 mm 2 mps 656 mmHg 41%
    16:00 +29°C° 0 mm 2 mps 656 mmHg 43%
    17:00 +29°C° 0 mm 2 mps 656 mmHg 45%
    18:00 +27°C° 0.1 mm 2 mps 656 mmHg 51%
    19:00 +26°C° 0.1 mm 2 mps 656 mmHg 57%
    20:00 +24°C° 0.1 mm 2 mps 656 mmHg 63%
    21:00 +23°C° 0.4 mm 2 mps 656 mmHg 67%
    22:00 +23°C° 0.4 mm 2 mps 656 mmHg 71%
    23:00 +22°C° 0.4 mm 1 mps 656 mmHg 75%
    Show more